Tracking 25734 objects as of 28-May-2022
HD Live streaming from Space Station
objects crossing your sky now

TITAN 3C TRANSTAGE DEB

Track TITAN 3C TRANSTAGE DEB now!
10-day predictions


NORAD ID: 1833
Int'l Code: 1965-082DY
Perigee: 647.8 km
Apogee: 755.0 km
Inclination: 32.2 °
Period: 98.7 minutes
Semi major axis: 7072 km
RCS: 0.1109 m2 (medium)
Launch date: October 15, 1965
Source: United States (US)
Launch site: AIR FORCE EASTERN TEST RANGE (AFETR)

Note: This is SATELLITE DEBRIS
aabbcc
Your satellite tracking list
Your tracking list is empty




NASA's NSSDC Master Catalog

Two Line Element Set (TLE):
1 01833U 65082DY  22147.92535579  .00002866  00000-0  56140-3 0  9998
2 01833  32.2282   9.2699 0075808  43.2014 317.4548 14.59668077952408
Source of the keplerian elements: AFSPC